Amsterdam, Netherlands

9:34 AM CEST on October 15, 2019 (GMT +0200)
Schiphol

Weather History for EHAM - August, 2019

Change the Weather History Date:

Wednesday, August 7, 2019

  Actual Average Record
Temperature  
Mean Temperature 66 °F -  
Max Temperature 72 °F 68 °F 92 °F (2018)
Min Temperature 61 °F 54 °F 50 °F (2005)
Cooling Degree Days 2    
Growing Degree Days 16 (Base 50)    
Moisture  
Dew Point 58 °F    
Average Humidity 72    
Maximum Humidity 94    
Minimum Humidity 47    
Precipitation  
Precipitation 0.01 in - - ()
Sea Level Pressure  
Sea Level Pressure 29.71 in    
Wind  
Wind Speed 12 mph ()    
Max Wind Speed 23 mph    
Max Gust Speed -    
Visibility 8.1 miles    
Events Rain    
Averages and records for this station are not official NWS values.
T = Trace of Precipitation, MM = Missing Value Source: Averaged Metar Reports

Daily Weather History Graph

Daily Weather History Graph

Search for Another Location

Airport or City:

Astronomy

Aug. 07, 2019 Rise Set
Actual Time 6:10 AM CEST 9:21 PM CEST
Civil Twilight 5:30 AM CEST 10:02 PM CEST
Nautical Twilight 4:36 AM CEST 10:55 PM CEST
Astronomical Twilight 3:23 AM CEST 12:05 AM CEST
Moon 2:20 PM CEST (8/7) 12:10 AM CEST (8/7)
Length of Visible Light 16h 32m
Length of Day
15h 11m
Waxing Crescent, 47% of the Moon is Illuminated
Aug 7
Waxing Crescent
Aug 7
First Quarter
Aug 15
Full
Aug 23
Last Quarter
Aug 30
New

Hourly Weather History & Observations

Time (CEST) Temp. Dew Point Humidity Pressure Visibility Wind Dir Wind Speed Gust Speed Precip Events Conditions
12:00 AM 65 °F 58 °F 70% 29.74 in 22 mi SSW 6.7 mph - -   Partly Cloudy
12:25 AM 64.4 °F 57.2 °F 77% 29.74 in 6.2 mi SSW 6.9 mph - N/A   Partly Cloudy
12:55 AM 62.6 °F 57.2 °F 82% 29.71 in - SSW 6.9 mph - N/A   Clear
1:00 AM 62 °F 56 °F 75% 29.74 in 22 mi SSW 6.7 mph - -   Partly Cloudy
1:25 AM 62.6 °F 55.4 °F 77% 29.71 in 6.2 mi SW 8.1 mph - N/A   Partly Cloudy
1:55 AM 60.8 °F 57.2 °F 88% 29.71 in 6.2 mi SSW 8.1 mph - N/A   Partly Cloudy
2:00 AM 62 °F 57 °F 79% 29.73 in 25 mi SSW 8.9 mph - -   Partly Cloudy
2:25 AM 62.6 °F 57.2 °F 82% 29.71 in 6.2 mi SSW 8.1 mph - N/A   Partly Cloudy
2:55 AM 62.6 °F 57.2 °F 82% 29.71 in 6.2 mi SSW 9.2 mph - N/A   Partly Cloudy
3:25 AM 62.6 °F 59.0 °F 88% 29.68 in 6.2 mi SSW 11.5 mph - N/A   Scattered Clouds
3:55 AM 62.6 °F 57.2 °F 82% 29.68 in 6.2 mi SSW 12.7 mph - N/A Rain Light Rain Showers
4:25 AM 62.6 °F 59.0 °F 88% 29.68 in 6.2 mi SW 9.2 mph - N/A Rain Light Rain Showers
4:55 AM 62.6 °F 59.0 °F 88% 29.68 in 5.0 mi SSW 10.4 mph - N/A Rain Light Rain Showers
5:25 AM 62.6 °F 59.0 °F 88% 29.68 in 6.2 mi SSW 10.4 mph - N/A   Scattered Clouds
5:55 AM 62.6 °F 59.0 °F 88% 29.68 in 6.2 mi SSW 10.4 mph - N/A   Scattered Clouds
6:00 AM 62 °F 59 °F 86% 29.70 in 15 mi SSW 11.2 mph - - Rain Rain
6:25 AM 62.6 °F 59.0 °F 88% 29.68 in 6.2 mi SSW 12.7 mph - N/A Rain Light Rain Showers
6:55 AM 62.6 °F 59.0 °F 88% 29.68 in 6.2 mi SSW 13.8 mph - N/A   Scattered Clouds
7:00 AM 62 °F 59 °F 85% 29.69 in 14 mi South 11.2 mph - - Rain Rain
7:25 AM 62.6 °F 59.0 °F 88% 29.68 in 6.2 mi SSW 15.0 mph - N/A   Scattered Clouds
7:55 AM 62.6 °F 60.8 °F 94% 29.68 in 6.2 mi SSW 10.4 mph - N/A   Scattered Clouds
8:00 AM 63 °F 61 °F 89% 29.70 in 11 mi SSW 11.2 mph - - Rain Rain
8:25 AM 64.4 °F 60.8 °F 88% 29.68 in 6.2 mi SSW 13.8 mph - N/A   Partly Cloudy
8:55 AM 64.4 °F 60.8 °F 88% 29.68 in 6.2 mi SW 12.7 mph - N/A   Partly Cloudy
9:25 AM 66.2 °F 60.8 °F 83% 29.68 in 6.2 mi SW 16.1 mph - N/A   Scattered Clouds
9:55 AM 66.2 °F 59.0 °F 78% 29.68 in 6.2 mi WSW 15.0 mph - N/A   Partly Cloudy
10:00 AM 68 °F 59 °F 67% 29.70 in 15 mi WSW 15.7 mph - -   Partly Cloudy
10:25 AM 66.2 °F 57.2 °F 73% 29.68 in 6.2 mi WSW 18.4 mph - N/A   Scattered Clouds
10:55 AM 68.0 °F 57.2 °F 68% 29.71 in 6.2 mi WSW 17.3 mph - N/A   Partly Cloudy
11:00 AM 70 °F 58 °F 57% 29.71 in 15 mi WSW 15.7 mph - -   Partly Cloudy
11:25 AM 69.8 °F 57.2 °F 64% 29.71 in 6.2 mi WSW 18.4 mph - N/A   Partly Cloudy
11:55 AM 68.0 °F 55.4 °F 64% 29.71 in 6.2 mi WSW 18.4 mph - N/A   Scattered Clouds
12:25 PM 71.6 °F 57.2 °F 60% 29.71 in 6.2 mi WSW 19.6 mph - N/A   Partly Cloudy
12:55 PM 71.6 °F 57.2 °F 60% 29.71 in 6.2 mi WSW 20.7 mph - N/A   Partly Cloudy
1:00 PM 71 °F 56 °F 50% 29.72 in 19 mi WSW 22.4 mph - -   Partly Cloudy
1:25 PM 71.6 °F 55.4 °F 57% 29.71 in 6.2 mi SW 21.9 mph - N/A   Partly Cloudy
1:55 PM 71.6 °F 55.4 °F 57% 29.71 in 6.2 mi WSW 20.7 mph - N/A   Scattered Clouds
2:00 PM 70 °F 57 °F 53% 29.72 in 17 mi WSW 20.1 mph - -   Partly Cloudy
2:25 PM 69.8 °F 57.2 °F 64% 29.71 in 6.2 mi SW 20.7 mph - N/A   Scattered Clouds
2:55 PM 69.8 °F 57.2 °F 64% 29.71 in 6.2 mi WSW 23.0 mph - N/A   Scattered Clouds
3:25 PM 69.8 °F 55.4 °F 60% 29.71 in 6.2 mi West 23.0 mph - N/A   Scattered Clouds
3:55 PM 71.6 °F 57.2 °F 60% 29.71 in 6.2 mi WSW 20.7 mph - N/A   Partly Cloudy
4:00 PM 71 °F 55 °F 47% 29.73 in 18 mi WSW 17.9 mph - -   Partly Cloudy
4:25 PM 71.6 °F 57.2 °F 60% 29.71 in 6.2 mi West 20.7 mph - N/A   Partly Cloudy
4:55 PM 71.6 °F 57.2 °F 60% 29.71 in 6.2 mi WSW 20.7 mph - N/A   Partly Cloudy
5:25 PM 69.8 °F 55.4 °F 60% 29.71 in 6.2 mi West 18.4 mph - N/A   Partly Cloudy
6:00 PM 71 °F 55 °F 47% 29.74 in 25 mi West 20.1 mph - -   Partly Cloudy
6:25 PM 71.6 °F 55.4 °F 57% 29.71 in 6.2 mi WSW 20.7 mph - N/A   Partly Cloudy
6:55 PM 69.8 °F 55.4 °F 60% 29.71 in 6.2 mi WSW 18.4 mph - N/A   Partly Cloudy
7:00 PM 70 °F 55 °F 50% 29.73 in 19 mi WSW 17.9 mph - -   Partly Cloudy
7:25 PM 69.8 °F 55.4 °F 60% 29.71 in 6.2 mi WSW 18.4 mph - N/A   Partly Cloudy
7:55 PM 69.8 °F 55.4 °F 60% 29.71 in - WSW 18.4 mph - N/A   Clear
8:00 PM 69 °F 56 °F 54% 29.73 in 19 mi WSW 17.9 mph - -   Partly Cloudy
8:25 PM 68.0 °F 57.2 °F 68% 29.71 in - SW 15.0 mph - N/A   Clear
8:55 PM 66.2 °F 59.0 °F 78% 29.71 in - SW 13.8 mph - N/A   Clear
9:00 PM 66 °F 58 °F 69% 29.74 in 12 mi SW 15.7 mph - -  
9:25 PM 66.2 °F 59.0 °F 78% 29.74 in 6.2 mi SW 12.7 mph - N/A   Partly Cloudy
9:55 PM 66.2 °F 59.0 °F 78% 29.74 in 6.2 mi SW 13.8 mph - N/A   Partly Cloudy
10:25 PM 66.2 °F 59.0 °F 78% 29.74 in 6.2 mi SW 12.7 mph - N/A   Partly Cloudy
10:55 PM 66.2 °F 59.0 °F 78% 29.74 in 6.2 mi SW 10.4 mph - N/A   Partly Cloudy
11:25 PM 66.2 °F 59.0 °F 78% 29.74 in 6.2 mi SW 11.5 mph - N/A   Partly Cloudy
11:55 PM 66.2 °F 59.0 °F 78% 29.74 in 6.2 mi SW 12.7 mph - N/A   Partly Cloudy